Wind_Speed
18 18 18 18 17 17 17 16 15 15 14 13 12 10 10 10 9 9 9 9 10 10 11 11 11 12 12 11 11 11 11 10 10 11 12 15 15 15 16 16 15 15 16
16 20 21 21 21 21 21 20 20 19 19 19 17 15 13 14 14 14 14 14 14 15 15 15 14 14 15 15 14 14 14 15 15 16 16 17 17 16 17 16 16 18 22
12 15 19 23 24 24 25 25 24 24 23 21 20 19 18 17 18 18 18 18 18 19 20 20 19 19 19 18 17 17 18 18 19 20 19 20 19 20 20 19 19 19 19
16 17 16 18 23 27 28 29 29 27 26 26 24 23 22 22 22 21 21 21 20 22 23 22 22 22 21 20 21 21 21 22 22 22 23 23 23 23 24 20 19 17 21
20 21 21 20 21 24 27 30 32 32 30 29 28 27 26 25 26 26 25 24 23 25 24 24 23 23 24 24 24 23 23 25 24 24 25 25 25 26 27 27 26 29 27
20 24 25 25 26 26 25 27 30 32 32 32 32 31 30 30 30 30 29 27 26 26 25 24 25 26 26 26 25 25 25 26 26 26 28 29 28 27 26 26 27 26 30
20 23 26 29 30 31 29 28 28 29 29 32 34 34 33 34 33 32 31 29 27 26 25 25 26 27 27 26 25 24 26 26 27 29 30 32 31 32 28 29 32 31 32
23 26 27 29 30 33 33 32 31 29 28 29 31 32 34 37 34 32 32 30 29 26 25 25 25 24 24 23 23 25 27 30 29 30 30 31 28 37 35 32 32 31 30
24 27 27 29 30 33 35 35 35 34 31 30 31 31 33 32 29 29 30 28 27 26 27 27 26 25 24 24 27 27 28 27 28 28 29 30 30 34 33 33 35 29 31
27 29 30 30 32 32 35 37 37 37 37 34 34 34 34 32 31 29 27 25 25 26 28 28 28 29 26 25 25 25 26 25 26 27 28 29 30 32 32 31 32 33 36
28 30 32 33 33 34 35 38 40 40 39 39 37 37 38 35 35 33 33 32 30 29 30 33 29 24 26 27 25 24 24 24 22 23 24 24 25 30 34 35 39 37 36
27 29 31 33 34 35 35 36 38 41 41 40 40 41 38 35 34 35 38 39 38 38 36 32 26 23 27 28 27 22 20 21 23 26 30 34 38 43 47 44 44 43 38
26 24 27 29 30 26 30 32 36 39 42 45 43 41 37 36 39 38 41 42 43 44 40 32 28 24 24 24 23 23 25 29 33 37 39 41 49 47 38 41 40 39 37
25 25 27 28 27 29 29 32 35 38 40 44 44 42 40 39 39 40 40 42 47 39 37 21 27 23 24 23 27 28 38 40 40 46 52 42 35 36 36 33 31 32 32
26 26 27 29 28 28 30 32 34 35 38 41 42 44 42 40 41 41 39 42 43 36 25 24 24 28 26 25 27 35 42 47 52 35 32 33 34 32 30 32 32 30 30
27 27 27 30 30 29 30 33 35 35 36 39 41 42 44 43 42 40 38 43 42 30 19 23 27 29 26 26 27 43 39 33 30 28 29 31 30 32 34 34 29 28 27
27 27 27 28 29 31 33 33 33 37 41 39 40 40 43 45 43 39 43 40 31 31 35 28 30 31 31 32 38 50 33 30 31 32 31 32 33 34 33 29 27 25 25
27 27 26 29 31 31 33 33 34 36 38 41 43 44 43 47 47 43 39 39 36 26 31 32 34 35 35 36 42 47 36 33 33 34 34 35 36 34 30 28 28 27 28
25 27 28 29 32 33 33 34 35 34 33 36 37 37 43 44 36 35 40 41 27 36 40 37 39 39 39 44 50 42 35 35 35 36 36 36 36 34 31 29 28 27 27
23 23 24 28 31 33 34 35 35 35 34 30 33 36 33 35 40 42 40 39 37 44 40 41 42 43 45 52 57 36 35 36 38 39 39 35 35 34 33 29 28 25 24
26 22 26 27 29 34 36 35 35 34 32 36 40 33 41 41 39 39 37 41 42 39 41 42 45 47 48 53 33 32 33 40 42 43 39 39 37 37 33 27 35 25 32
28 28 29 29 29 31 35 34 33 30 33 30 36 38 41 40 41 42 40 39 40 41 44 48 49 50 43 27 30 30 39 43 44 41 40 38 36 35 34 26 26 30 32
33 33 32 31 28 29 32 31 29 32 29 34 37 42 39 41 43 39 40 41 43 47 53 50 57 42 29 28 30 38 43 42 42 40 40 39 37 35 34 29 27 29 25
36 36 34 33 29 30 31 30 30 38 36 36 38 42 43 40 41 43 44 46 47 48 48 35 27 24 27 33 37 40 40 41 42 40 38 38 35 35 33 27 31 26 27
36 34 32 32 31 29 30 32 31 39 34 39 42 44 43 44 45 46 49 49 52 42 27 22 27 31 33 36 38 40 39 40 40 38 36 36 34 34 33 31 28 25 30
37 31 30 29 31 31 32 34 35 41 43 41 42 42 44 46 50 52 51 41 28 23 24 29 35 36 37 38 38 40 39 38 38 39 34 37 36 34 32 30 27 23 18
Wind_Direction
238 239 239 236 234 235 238 242 247 258 259 258 259 264 271 278 284 284 285 282 283 281 283 283 284 294 292 290 288 286 291 294 295 310 298 307 303 302 311 316 307 306 302
242 242 242 244 242 241 240 241 245 247 253 259 261 260 263 270 273 271 273 276 277 279 278 276 275 277 281 286 288 286 290 287 290 289 295 301 299 295 300 302 301 299 299
251 248 247 246 246 248 247 245 245 249 253 259 264 266 263 262 267 270 273 275 277 278 277 279 279 277 275 276 281 285 284 286 289 289 291 294 293 292 296 297 294 291 303
256 257 255 253 249 249 251 252 252 249 252 257 258 258 258 260 260 263 267 270 273 273 275 279 281 279 277 277 281 281 279 282 286 288 293 295 294 293 297 299 306 314 298
259 259 259 256 252 252 253 254 255 257 254 254 257 258 257 256 256 258 261 263 267 269 274 275 272 269 269 270 274 275 274 278 282 284 287 287 288 289 293 298 294 300 310
262 262 260 257 255 252 253 256 257 258 260 260 258 257 257 257 255 257 256 258 262 266 268 269 271 272 272 272 270 266 267 271 277 279 281 285 285 290 289 289 295 304 305
269 269 264 259 255 256 256 255 256 257 259 261 262 262 261 258 257 259 260 263 265 266 267 272 273 274 274 276 278 278 274 277 277 277 279 282 286 281 291 285 287 294 309
279 278 274 265 257 255 254 254 256 256 256 258 263 266 262 258 256 257 260 262 264 266 266 268 271 271 273 278 283 285 287 291 289 283 280 281 273 280 282 282 282 286 293
276 273 270 266 262 256 252 250 251 254 257 256 258 263 264 263 260 253 254 256 257 261 263 267 271 274 277 287 289 289 290 292 290 289 289 290 284 285 287 282 288 290 293
267 266 264 262 261 258 254 251 249 250 252 253 256 259 261 263 262 258 253 258 262 264 265 267 270 273 283 285 285 285 285 290 290 293 294 294 297 298 298 297 295 284 291
262 263 265 264 263 261 258 254 249 248 251 252 254 258 260 261 264 267 268 268 267 268 265 267 272 275 286 295 296 289 295 295 294 297 296 292 295 300 300 297 298 298 280
265 259 263 269 270 265 258 256 255 247 248 253 256 257 260 266 270 270 271 273 274 270 263 265 266 275 292 301 292 294 290 284 287 289 288 290 292 296 293 291 291 293 290
276 269 264 268 269 262 257 255 252 251 246 250 255 262 260 267 268 266 267 270 273 274 264 256 275 287 275 285 290 283 281 287 291 294 292 293 298 297 295 293 291 292 296
275 269 267 267 270 260 256 252 253 250 249 250 252 257 259 261 267 270 273 273 274 269 261 263 275 288 275 278 278 290 294 288 293 290 291 288 289 292 293 294 299 304 303
278 271 270 269 268 265 260 257 254 253 251 250 252 256 262 262 267 268 276 281 275 281 250 262 267 266 266 271 293 299 292 287 289 287 292 291 292 296 300 306 305 305 299
277 273 271 270 268 269 264 259 256 255 256 256 256 258 259 262 269 275 272 279 276 282 250 272 256 260 257 265 283 304 301 288 293 290 293 293 296 298 300 304 301 298 290
279 279 275 273 274 273 273 264 262 256 256 257 257 259 258 263 269 266 273 279 252 276 281 267 255 262 266 271 299 304 292 289 292 294 296 295 295 297 301 301 296 293 283
278 279 280 282 282 276 273 272 269 264 260 258 258 260 265 264 269 273 273 279 252 275 275 276 270 275 278 285 298 308 289 289 292 298 301 301 301 301 302 298 295 285 284
273 274 276 279 280 278 273 269 268 268 265 268 261 270 263 269 266 260 264 271 272 276 281 272 275 278 283 288 304 297 282 288 290 296 298 300 300 302 300 292 285 278 274
277 281 288 290 287 280 274 270 267 266 266 266 262 270 266 263 267 270 264 270 272 278 273 276 279 284 289 291 300 279 285 289 289 295 298 300 299 298 292 287 279 275 267
283 296 300 297 296 290 280 271 268 265 261 254 268 258 265 272 270 271 273 272 269 271 273 277 281 285 289 297 276 282 285 287 291 296 300 298 297 295 290 281 269 281 265
290 294 304 304 305 299 289 279 270 261 264 259 266 266 270 273 268 271 264 267 270 269 273 276 278 284 292 270 273 278 283 286 291 297 297 298 296 292 288 277 276 266 276
290 293 299 300 301 297 294 291 278 279 268 270 273 268 279 268 266 263 264 264 269 274 274 279 284 285 275 275 273 279 287 292 294 296 296 296 295 290 286 279 273 263 259
282 287 294 299 301 300 303 291 270 282 264 273 271 270 268 266 264 264 265 267 267 271 279 283 284 275 270 277 285 288 293 294 293 294 292 292 290 289 287 281 281 269 257
278 282 290 295 301 303 299 284 283 276 262 281 272 271 269 267 267 268 269 272 278 278 278 294 296 292 289 289 289 290 292 291 291 291 291 290 289 289 287 281 281 275 253
277 280 285 296 300 298 297 286 276 268 275 277 272 269 267 267 267 269 277 273 268 282 291 285 281 283 284 286 289 290 289 289 288 288 290 286 285 287 286 282 277 264 261
Height
3197 3198 3200 3201 3202 3203 3204 3204 3205 3206 3207 3207 3209 3210 3210 3210 3210 3210 3210 3210 3210 3209 3208 3207 3207 3206 3205 3205 3204 3203 3202 3201 3201 3200 3199 3199 3198 3197 3196 3195 3194 3193 3192
3194 3195 3197 3198 3200 3201 3202 3202 3203 3203 3204 3205 3206 3207 3208 3208 3209 3209 3208 3207 3207 3207 3206 3205 3204 3203 3202 3201 3201 3200 3199 3198 3197 3196 3195 3195 3194 3193 3192 3192 3191 3190 3188
3192 3192 3193 3194 3196 3197 3198 3199 3199 3200 3200 3202 3204 3204 3204 3205 3205 3205 3206 3205 3204 3204 3203 3202 3201 3200 3198 3197 3196 3195 3194 3194 3193 3192 3191 3190 3189 3188 3187 3186 3184 3183 3182
3189 3189 3190 3191 3192 3192 3193 3194 3195 3196 3197 3198 3199 3199 3200 3200 3201 3201 3201 3201 3200 3199 3197 3197 3196 3196 3195 3194 3192 3191 3190 3189 3188 3187 3186 3186 3184 3183 3182 3181 3179 3178 3177
3184 3185 3186 3187 3187 3187 3188 3189 3190 3191 3192 3192 3193 3194 3194 3194 3194 3195 3196 3195 3195 3193 3193 3191 3190 3190 3190 3188 3187 3186 3185 3184 3183 3182 3181 3181 3179 3178 3176 3176 3174 3173 3172
3179 3179 3180 3181 3182 3182 3183 3183 3184 3185 3187 3187 3187 3187 3188 3189 3188 3188 3188 3188 3188 3187 3186 3185 3184 3184 3183 3182 3182 3181 3179 3178 3177 3176 3175 3174 3173 3172 3171 3169 3169 3168 3166
3173 3173 3174 3175 3176 3176 3178 3178 3178 3179 3179 3181 3180 3181 3181 3181 3182 3182 3182 3182 3182 3182 3181 3180 3179 3178 3176 3176 3176 3176 3175 3173 3172 3170 3169 3167 3168 3167 3167 3165 3163 3161 3160
3167 3167 3166 3167 3168 3169 3171 3172 3173 3173 3174 3173 3173 3173 3173 3174 3174 3175 3175 3177 3177 3176 3175 3174 3173 3172 3171 3170 3170 3169 3168 3167 3165 3164 3162 3161 3161 3159 3158 3157 3157 3156 3155
3161 3160 3160 3160 3160 3161 3162 3164 3166 3166 3168 3168 3167 3167 3166 3166 3168 3168 3169 3170 3169 3169 3169 3167 3166 3165 3165 3164 3164 3163 3162 3160 3159 3157 3155 3155 3153 3152 3151 3151 3151 3150 3149
3154 3153 3152 3152 3152 3153 3153 3155 3158 3159 3159 3161 3161 3160 3160 3160 3160 3161 3162 3162 3162 3162 3162 3162 3161 3159 3158 3158 3157 3156 3154 3152 3151 3150 3149 3148 3147 3146 3144 3144 3143 3143 3140
3146 3145 3144 3144 3145 3145 3146 3147 3148 3151 3152 3152 3154 3153 3153 3154 3154 3155 3154 3155 3155 3154 3153 3152 3152 3152 3152 3150 3150 3149 3146 3146 3144 3144 3144 3142 3140 3139 3138 3135 3133 3131 3130
3138 3137 3137 3136 3137 3136 3138 3139 3140 3142 3143 3145 3146 3146 3146 3148 3148 3149 3149 3148 3146 3145 3140 3145 3142 3143 3142 3142 3142 3141 3141 3140 3139 3137 3135 3133 3132 3129 3128 3126 3123 3121 3119
3130 3131 3130 3129 3128 3129 3130 3131 3131 3133 3135 3136 3138 3140 3140 3141 3141 3141 3140 3139 3138 3136 3130 3133 3133 3135 3136 3135 3135 3135 3134 3133 3131 3129 3126 3123 3120 3119 3116 3115 3113 3110 3108
3123 3123 3123 3122 3122 3121 3122 3123 3123 3124 3125 3127 3129 3131 3132 3133 3133 3132 3132 3131 3129 3123 3120 3124 3126 3128 3127 3128 3129 3130 3129 3125 3121 3118 3115 3111 3110 3110 3108 3106 3104 3102 3100
3116 3116 3115 3115 3115 3114 3115 3115 3115 3116 3117 3118 3120 3122 3123 3124 3124 3124 3123 3122 3119 3109 3117 3118 3122 3122 3122 3122 3123 3122 3119 3116 3112 3108 3106 3103 3102 3101 3100 3098 3095 3094 3093
3109 3109 3108 3108 3107 3107 3107 3107 3107 3109 3110 3111 3112 3113 3113 3114 3115 3115 3115 3115 3113 3111 3105 3113 3116 3115 3114 3113 3113 3112 3108 3104 3102 3100 3097 3096 3095 3093 3091 3089 3088 3087 3086
3102 3102 3102 3101 3100 3100 3100 3100 3100 3101 3101 3102 3103 3104 3104 3105 3106 3106 3106 3106 3103 3101 3101 3102 3106 3106 3106 3105 3104 3103 3099 3096 3093 3090 3088 3087 3085 3084 3083 3081 3080 3079 3077
3096 3096 3094 3094 3094 3093 3092 3092 3092 3092 3092 3093 3093 3094 3095 3095 3096 3096 3096 3095 3091 3091 3095 3095 3097 3098 3097 3095 3093 3091 3088 3086 3085 3082 3080 3079 3077 3075 3073 3072 3071 3070 3069
3088 3088 3088 3087 3086 3085 3084 3083 3083 3083 3082 3084 3084 3083 3084 3085 3087 3087 3087 3087 3083 3087 3087 3086 3087 3087 3085 3084 3081 3080 3079 3076 3074 3073 3071 3069 3067 3065 3065 3064 3063 3061 3061
3080 3080 3080 3079 3077 3075 3074 3074 3074 3074 3074 3074 3075 3075 3076 3077 3078 3078 3078 3079 3080 3079 3078 3078 3077 3077 3076 3074 3073 3070 3068 3067 3066 3064 3062 3061 3059 3057 3056 3056 3055 3052 3052
3071 3072 3072 3071 3069 3067 3065 3065 3064 3065 3065 3066 3067 3069 3068 3069 3069 3070 3071 3072 3071 3071 3071 3070 3070 3069 3068 3064 3062 3061 3058 3057 3055 3054 3052 3049 3049 3047 3044 3044 3044 3043 3043
3063 3063 3064 3062 3060 3058 3057 3056 3056 3057 3058 3059 3060 3060 3061 3061 3062 3062 3062 3063 3063 3063 3062 3060 3060 3058 3057 3055 3053 3050 3049 3047 3044 3044 3042 3040 3038 3036 3035 3032 3033 3034 3035
3055 3055 3055 3054 3052 3051 3049 3049 3049 3049 3050 3051 3052 3052 3052 3052 3052 3052 3053 3053 3053 3053 3050 3050 3049 3047 3046 3046 3044 3041 3039 3037 3035 3032 3031 3029 3028 3026 3025 3024 3023 3024 3025
3045 3045 3045 3045 3044 3041 3040 3040 3042 3042 3043 3043 3043 3044 3043 3043 3043 3043 3043 3043 3042 3041 3039 3039 3039 3038 3037 3036 3034 3032 3029 3028 3025 3022 3022 3020 3019 3017 3016 3014 3014 3014 3015
3034 3035 3035 3035 3034 3032 3031 3032 3033 3033 3031 3033 3034 3034 3033 3033 3033 3034 3034 3033 3034 3031 3030 3029 3029 3028 3027 3026 3024 3021 3020 3017 3015 3013 3012 3011 3011 3008 3006 3005 3004 3004 3006
3023 3024 3025 3024 3024 3023 3023 3024 3023 3025 3025 3025 3025 3024 3024 3023 3022 3022 3023 3022 3022 3020 3021 3020 3019 3018 3017 3014 3012 3009 3008 3007 3005 3004 3005 3002 3001 2999 2997 2997 2996 2996 2997